TimeWET,TemperatureF,Dew PointF,Humidity,Sea Level PressureIn,VisibilityMPH,Wind Direction,Wind SpeedMPH,Gust SpeedMPH,PrecipitationIn,Events,Conditions,WindDirDegrees,DateUTC
12:00 AM,48,39,61,29.64,3,SW,15.0,,,,Overcast,220,2014-01-18 00:00:00
12:00 AM,48.2,39.2,71,29.62,3.1,SW,15.0,-,N/A,,Mostly Cloudy,220,2014-01-18 00:00:00
1:00 AM,48.2,39.2,71,29.62,3.7,SW,11.5,-,N/A,,Mostly Cloudy,220,2014-01-18 01:00:00
2:00 AM,46.4,39.2,76,29.62,3.7,SW,6.9,-,N/A,,Mostly Cloudy,220,2014-01-18 02:00:00
3:00 AM,45,38,70,29.62,4,SW,6.9,,,,Mostly Cloudy,220,2014-01-18 03:00:00
3:00 AM,44.6,39.2,81,29.59,3.7,SW,6.9,-,N/A,,Mostly Cloudy,220,2014-01-18 03:00:00
4:00 AM,44.6,39.2,81,29.59,3.7,SSW,6.9,-,N/A,,Scattered Clouds,210,2014-01-18 04:00:00
5:00 AM,44.6,39.2,81,29.59,3.7,SSW,5.8,-,N/A,,Scattered Clouds,200,2014-01-18 05:00:00
6:00 AM,46,38,67,29.62,4,SW,13.8,,,,Mostly Cloudy,220,2014-01-18 06:00:00
6:00 AM,46.4,39.2,76,29.59,3.7,SW,13.8,-,N/A,,Scattered Clouds,220,2014-01-18 06:00:00
7:00 AM,46.4,39.2,76,29.59,3.7,SW,11.5,-,N/A,,Scattered Clouds,220,2014-01-18 07:00:00
8:00 AM,46.4,41.0,81,29.62,3.1,WSW,13.8,-,N/A,Rain,Rain,240,2014-01-18 08:00:00
9:00 AM,46,41,77,29.66,3,WSW,13.8,,,Rain,Light Rain,240,2014-01-18 09:00:00
9:00 AM,46.4,41.0,81,29.65,3.1,WSW,13.8,-,N/A,Rain,Rain,240,2014-01-18 09:00:00
10:00 AM,46.4,42.8,87,29.68,3.1,SW,118.5,-,N/A,Rain,Rain,230,2014-01-18 10:00:00
11:00 AM,44.6,42.8,93,29.68,3.1,WSW,13.8,-,N/A,Rain,Rain,240,2014-01-18 11:00:00
12:00 PM,45,42,85,29.70,3,SW,16.1,,,Rain,Light Rain,230,2014-01-18 12:00:00
12:00 PM,44.6,42.8,93,29.68,3.1,SW,16.1,-,N/A,Rain,Rain,230,2014-01-18 12:00:00
1:00 PM,44.6,41.0,87,29.68,3.1,WSW,13.8,-,N/A,Rain,Rain,240,2014-01-18 13:00:00
2:00 PM,48.2,42.8,82,29.65,5.0,WSW,16.1,-,N/A,,Mostly Cloudy,240,2014-01-18 14:00:00
3:00 PM,47,44,83,29.69,4,WSW,13.8,,,Rain,Light Rain Showers,240,2014-01-18 15:00:00
3:00 PM,46.4,42.8,87,29.68,3.7,WSW,13.8,-,N/A,Rain,Light Rain Showers,240,2014-01-18 15:00:00
4:00 PM,48.2,41.0,76,29.68,5.0,WSW,15.0,-,N/A,,Overcast,240,2014-01-18 16:00:00
5:00 PM,48.2,41.0,76,29.71,5.0,SW,12.7,-,N/A,,Mostly Cloudy,230,2014-01-18 17:00:00
6:00 PM,45,41,79,29.76,4,SSW,10.4,,,Rain,Light Rain Showers,210,2014-01-18 18:00:00
6:00 PM,44.6,41.0,87,29.74,3.7,SSW,10.4,-,N/A,,Partly Cloudy,210,2014-01-18 18:00:00
7:00 PM,46.4,41.0,81,29.74,5.0,SW,12.7,-,N/A,,Partly Cloudy,220,2014-01-18 19:00:00
8:00 PM,46.4,41.0,81,29.77,3.7,SW,12.7,-,N/A,,Partly Cloudy,220,2014-01-18 20:00:00
9:00 PM,47,40,70,29.78,4,SW,17.3,,,,Mostly Cloudy,220,2014-01-18 21:00:00
9:00 PM,46.4,41.0,81,29.77,3.7,SW,17.3,-,N/A,,Partly Cloudy,220,2014-01-18 21:00:00
10:00 PM,46.4,41.0,81,29.77,3.7,SW,17.3,-,N/A,,Partly Cloudy,220,2014-01-18 22:00:00
11:00 PM,46.4,41.0,81,29.77,3.7,SW,17.3,-,N/A,,Partly Cloudy,220,2014-01-18 23:00:00